Location: Newark
(47.5500°N, 8.6167°E)
Time: 10:29:44
(UTC+00:00)

Envisat - Pass Details

Date: 29 January 2020
Orbit: 764 x 766 km, 98.1° (Epoch: 19 February)

Event Time Altitude Azimuth Distance (km) Brightness Sun altitude
Rises 05:22:10 0° 22° (NNE) 3,243 6.4 -15.9°
Reaches altitude 10° 05:24:44 10° 33° (NNE) 2,312 5.8 -15.5°
Maximum altitude 05:29:14 31° 95° (E) 1,329 5.0 -14.8°
Drops below altitude 10° 05:33:41 10° 156° (SSE) 2,296 6.0 -14.0°
Sets 05:36:14 0° 167° (SSE) 3,217 6.6 -13.6°
